CBERS 1 DEB, 30789

Orbit data source: Space-Track

CBERS 1 DEB, 30789 is space debris in SSO originally from a launch on Thu, 14 Oct 1999 UTC launched from the Taiyaun Space Center, China (TSC). Debris objects in space refer to the collection of defunct objects orbiting the Earth. Examples of debris include non-operational satellites, rocket bodies, and fragments generated from explosions, collisions, or faulty payload assembly.

Loading next visibility...
Identifier
30789, 1999-057NY
Orbit
SSO
Country
Flag of UnknownUnknown / CHBZ
Related business
Manufacturer
Unknown
Mission
Spacecraft
Bus & Motor
Unknown
Mass
Unknown
Launch date (UTC)
1999-10-14 (26 years ago)
Launch vehicle
Unknown
Launch site
Taiyaun Space Center, China (TSC)
Object type
Payload
Rocket body
Debris
Shape & HBR
Unknown shape, 0.1 m
Radar Cross Section
Small (<0.1 m²)

Expand to show TLE details & history
Last TLE update: 9 hours ago

TLE from 9 hours ago
0 CBERS 1 DEB
1 30789U 99057NY  25291.87766950  .00006287  00000-0  13990-2 0  9991
2 30789  98.6571 325.1523 0007032  97.0715  79.7764 14.57295150981127
Epoch: 2025-10-18T21:03Z
TLE epoch observation values (Epoch: 2025-10-18T21:03:50.644Z)
Latitude
2.93787°
Longitude
162.0342°
Altitude
703.674 km
Speed
7.505 km/s
True Right ascension
09h 42m 23s
True Declination
2° 55' 13"
Sunlit
Object was in daylight at epoch
Visualization orbit readout
Latitude
Unknown
Longitude
Unknown
Altitude
Unknown
Speed
Unknown
Apparent Right ascension
Unknown
Apparent Declination
Unknown
Sunlit
N/A
Visualization observer readout
Local Sidereal Time
01:16:33
Azimuth
Unknown
Elevation
Unknown
Doppler factor
Unknown
Orbital elements
Apogee altitude
704.004 km
Perigee altitude
694.051 km
Semi-major axis
7,077.165 km
Eccentricity
0.0007
Inclination
98.6571°
RAAN
325.1523°
Arg. of periapsis
97.0715°
True anomaly
79.85571°
Mean anomaly
79.7764°
Eccentric anomaly
79.81606°
Mean motion
3.64548 °/min
Orbital period
98.75 mins
BSTAR
0.001399
Loading maneuver chart data...
Computing Atmospheric mass density...

Documentation

Showing up to 5 results
|